Dewpoint
2 1 1 2 2 -0 -0 0 4 4 4 2 -0 4 5 6 8 4 1 -5 0 2 2 2 4 -1 5 4 2 0 0 1 1 2 0 -2 -3 -3 -2 -2 -2 -1 0 -0 3
2 1 2 3 2 3 3 3 2 1 2 1 5 6 6 7 7 1 -0 1 2 2 1 1 1 4 4 2 -0 0 0 -1 -1 -1 -1 -2 -3 -4 -3 -3 -2 -1 -0 -0 1
3 1 2 4 4 3 3 3 4 4 5 5 5 5 7 6 4 3 2 4 4 2 0 1 3 4 2 0 -1 -0 2 -1 -3 -1 -2 -2 -4 -4 -4 -4 -3 -1 -0 -1 -1
3 3 3 4 4 3 2 3 3 4 4 5 5 6 5 4 3 3 4 5 3 2 0 3 5 1 -0 -0 -2 -1 -4 -3 -4 -2 -2 -3 -4 -4 -4 -4 -5 -4 -2 -1 -2
4 4 5 4 4 4 5 4 3 2 5 5 4 3 3 3 -0 -0 2 3 2 2 0 4 4 -1 -1 -2 -4 -3 -4 -4 -4 -4 -4 -4 -5 -5 -4 -6 -5 -5 -3 -2 -2
2 3 3 4 5 5 4 4 5 3 4 3 4 3 2 3 -1 -2 -1 0 1 1 1 4 2 -2 -3 -3 -4 -4 -5 -5 -5 -5 -5 -5 -6 -5 -4 -7 -6 -5 -4 -3 -4
2 1 2 4 6 5 4 5 5 4 3 5 3 2 3 -0 -1 -4 -4 -3 -1 2 3 3 1 -4 -5 -5 -5 -5 -4 -4 -4 -5 -7 -5 -4 -5 -6 -5 -6 -5 -5 -4 -5
2 1 1 5 4 5 4 3 3 4 4 3 2 1 0 -2 -1 -1 -1 -1 1 1 1 2 -0 -5 -5 -5 -5 -4 -5 -3 -5 -4 -6 -7 -7 -7 -6 -6 -6 -5 -5 -5 -5
1 2 0 2 2 2 0 1 2 2 1 0 0 -1 -2 -3 -1 -0 -1 -0 -1 -4 -0 -2 -5 -5 -6 -4 -3 -5 -3 -4 -4 -3 -4 -7 -8 -9 -8 -8 -8 -9 -9 -8 -7
1 2 2 1 0 0 1 1 0 -1 -1 -1 -3 -2 -3 -2 -2 -2 -2 -3 -5 -5 -6 -6 -6 -4 -1 -2 -1 -4 -2 -3 -5 -5 -5 -5 -6 -7 -8 -9 -10 -10 -11 -12 -12
1 1 -1 0 1 -1 -0 -0 -1 -2 -1 -0 -1 -1 -3 -4 -3 -2 -2 -5 -5 -5 -2 -4 -1 -2 -6 -6 -8 -5 -4 -3 -2 -5 -8 -8 -6 -7 -5 -5 -7 -7 -8 -9 -10
0 1 -1 -1 -1 -2 -1 -1 1 1 -0 -3 -3 -4 -4 -5 -4 -2 -4 -5 -4 -1 -4 -3 -2 -4 -3 -3 -6 -5 -5 -5 -6 -5 -5 -3 -4 -5 -4 -3 -4 -6 -6 -7 -6
-0 -0 -2 -2 -2 -3 -2 -1 -0 1 -1 -4 -4 -3 -4 -4 -3 -3 -5 -4 -3 -3 -3 -3 -3 -3 -2 -1 -2 -1 -5 -5 -6 -2 -2 -6 -9 -5 -4 -2 -0 -0 -1 -1 -2
-1 -1 -2 -3 -3 -3 -3 -2 -2 -1 -2 -3 -3 -4 -4 -5 -4 -3 -4 -5 -4 -4 -3 -1 -2 -3 -1 1 -2 -3 -1 -2 -0 -4 -6 -5 -6 -11 -2 -1 -1 -0 -1 -2 -3
-1 -2 -2 -2 -2 -2 -1 -2 -0 1 -2 -5 -2 -3 -4 -5 -5 -4 -4 -5 -2 -1 -5 0 -0 -2 1 1 -1 -1 -1 -1 -1 -1 -5 -5 -4 -14 -3 -2 -2 -1 -1 -0 -1
-2 -2 -2 -2 -3 -2 -2 -1 1 -1 -3 -1 -2 -2 -3 -3 -4 -4 -4 -5 -3 -4 -3 -1 -1 0 1 1 -1 -1 0 0 -0 -2 -5 -3 -3 -10 -1 -5 -2 -2 -0 -0 -0
-3 -3 -3 -4 -3 -3 -1 1 -0 -1 -4 -1 -1 -2 -2 -2 -3 -4 -3 -2 -4 -4 -3 -5 -2 -1 0 -0 0 -0 -2 -1 -4 -3 -3 -0 -1 -1 -6 -9 -4 -2 -2 -1 -3
-4 -4 -3 -3 -2 -2 1 -2 -0 -0 0 -3 -2 -3 -1 -3 -3 -2 -3 -2 -2 -5 -3 -4 -7 -1 -0 1 -1 -1 -4 -2 -8 -1 -1 -3 0 -5 -8 -6 -6 -3 -1 -3 -6
-5 -2 -3 -3 -2 1 -0 1 -0 -1 -1 -2 -3 -3 -2 -4 -4 -3 -2 -1 -1 -2 -4 -1 -1 -1 0 1 -2 -1 -1 -2 -0 -3 -3 -3 -6 -4 -4 -6 -3 -2 -3 -5 -5
-3 0 -3 -1 1 0 -0 1 0 -1 -1 -3 -2 -3 -2 -3 -3 -4 -3 -3 -2 -2 -3 -3 -2 -0 0 -0 -1 -1 -4 -3 -2 -6 -5 -3 -4 -1 -1 -2 -3 -3 -5 -6 -5
1 -2 -5 -1 2 -3 -0 -1 -1 -1 -1 -2 -1 -3 -3 -3 -5 -3 -2 -3 -2 -3 -4 -2 -5 -1 -1 -1 -2 0 -1 -2 -3 -3 -3 -8 -5 -3 -2 -2 -2 -5 -6 -5 -5
0 -5 -3 -1 -1 -1 0 -1 -1 -1 -1 -2 -2 -2 -3 -3 -2 -1 -1 -2 -1 -1 -3 -2 -2 -0 -4 -2 -2 -4 -3 -3 -3 -6 -3 -4 -4 -10 -6 -3 -4 -6 -5 -5 -5
-1 -0 -2 -2 -1 -1 -1 0 0 -0 -0 -1 -1 -2 -3 -2 -2 -0 -0 -1 -1 -1 -2 -4 -3 -2 -5 -5 -3 -0 -1 -5 -5 -3 -3 -6 -9 -7 -4 -4 -5 -5 -5 -5 -5
-1 -1 -3 -3 -3 -3 -2 -1 -1 -0 -1 -1 -2 -2 -3 -3 -2 1 0 -0 -1 -1 -1 -3 -3 -6 -6 -7 -4 -1 -2 -1 -3 -0 -3 -5 -8 -6 -4 -4 -4 -5 -5 -5 -5
-3 -3 -0 -2 -2 -3 -3 -1 -1 -2 -1 -1 -2 -2 -3 -2 -2 0 1 0 -1 -0 -1 -5 -6 -3 -3 -4 -2 -3 -3 -1 -1 -2 -3 -5 -5 -8 -6 -4 -5 -6 -5 -5 -5
-4 -2 -3 -2 -3 -4 -3 -1 -1 -1 -2 -2 -2 -2 -3 -3 -5 -3 0 -1 -2 -0 -1 -2 -4 -1 -2 -3 -2 -1 -2 -3 -2 -2 -2 -3 -3 -9 -9 -6 -6 -5 -5 -5 -5
-2 -3 -2 -3 -4 -5 -4 -2 -2 -2 -2 -2 -3 -3 -2 -3 -3 -3 -2 -2 -2 -1 -1 -1 -1 -2 -5 -2 -3 -8 -6 -3 -4 -4 -4 -3 -6 -5 -5 -5 -5 -5 -5 -5 -8
Wind_Speed
17 18 17 17 15 13 12 8 7 13 17 19 22 26 26 25 26 23 28 20 15 20 16 16 19 19 18 12 7 5 4 4 8 7 4 10 5 5 4 11 4 5 8 5 24
16 14 19 16 12 9 9 5 3 9 14 17 20 20 16 28 24 24 18 19 17 17 16 19 22 22 12 8 6 4 4 8 3 1 4 8 7 11 5 5 2 5 7 10 22
15 14 18 19 9 8 6 3 6 9 7 11 17 16 14 18 10 14 22 19 17 16 17 19 21 19 6 9 4 3 4 3 2 2 6 9 7 6 16 1 6 10 14 17 21
22 19 18 20 13 5 5 2 5 6 10 8 12 19 22 17 5 12 15 16 14 16 18 19 21 9 5 6 4 6 5 3 5 2 5 4 8 5 4 2 4 7 12 18 18
24 22 19 15 14 16 2 6 11 10 8 14 20 19 22 4 3 9 15 16 15 18 20 19 16 6 7 8 6 4 3 7 5 10 10 8 6 3 3 5 4 11 13 14 13
21 24 22 16 13 19 21 14 19 16 18 8 21 21 20 3 3 9 13 15 16 19 20 18 10 8 10 5 4 7 11 6 11 10 9 5 2 2 6 6 6 11 13 13 11
21 24 25 16 18 20 23 31 25 20 24 12 23 20 11 5 4 9 13 13 18 14 20 21 6 2 11 7 13 7 6 6 12 8 4 3 1 4 3 10 7 11 12 12 11
17 21 26 20 22 23 21 21 23 24 20 16 21 14 5 7 9 13 15 17 13 15 15 17 9 10 5 19 6 5 5 5 4 7 2 3 5 2 6 12 9 10 10 11 13
14 18 22 21 17 17 19 17 13 10 6 5 9 11 3 7 12 17 14 15 15 16 16 14 12 7 6 6 5 7 5 4 1 2 2 2 3 5 4 7 8 8 10 11 12
10 15 15 13 12 12 12 10 10 11 6 12 13 7 6 6 13 12 13 15 12 18 16 6 6 4 4 4 6 5 6 3 4 1 2 1 4 3 2 4 8 8 8 10 13
9 10 15 9 10 8 12 11 6 6 19 10 6 6 10 15 10 11 11 15 9 9 5 6 8 4 1 2 3 7 6 5 1 2 2 2 3 6 11 8 13 14 10 10 9
7 8 13 16 11 13 9 10 13 4 5 16 17 16 12 10 13 8 8 6 6 5 2 7 4 2 3 1 6 6 7 3 2 2 2 4 5 3 5 3 3 4 5 5 6
6 8 6 12 10 11 14 13 10 9 3 12 15 13 10 17 8 8 5 8 8 6 7 6 1 3 4 6 8 5 7 4 4 2 3 4 5 1 2 4 7 8 5 2 2
4 5 4 6 6 11 11 12 9 7 5 10 11 9 10 5 8 11 9 6 8 6 4 7 5 4 5 7 3 4 2 4 6 4 3 4 4 3 1 1 2 5 6 5 4
3 4 5 7 7 8 10 10 7 1 5 8 7 6 9 8 4 10 8 8 5 4 3 2 4 7 9 3 2 4 2 4 3 5 3 5 3 5 1 4 3 1 2 4 6
5 7 11 12 12 8 9 6 2 6 2 7 6 6 4 10 5 5 6 13 7 7 8 3 3 4 2 3 4 6 5 7 5 3 3 2 4 4 4 5 3 2 4 4 5
6 9 12 12 9 9 7 3 5 6 4 6 3 4 4 7 6 5 5 6 3 5 4 6 4 4 4 4 4 5 5 3 4 4 5 3 2 8 4 3 6 8 6 6 7
7 8 9 9 7 4 4 5 9 4 3 3 2 3 5 5 4 5 3 4 6 4 4 5 5 5 6 3 3 3 4 5 6 3 4 4 5 5 5 3 6 10 9 7 7
7 6 6 5 4 6 1 6 6 6 3 2 2 6 5 4 3 5 4 2 1 3 4 5 3 3 3 2 2 2 1 3 7 3 3 3 7 7 3 3 8 10 9 7 7
5 6 6 4 5 5 5 4 2 4 2 1 3 3 2 4 3 4 3 2 2 2 1 5 4 2 2 1 4 2 5 4 3 2 4 5 5 5 6 8 7 8 9 8 4
5 1 8 7 4 6 3 1 2 1 1 2 2 3 2 2 3 2 1 2 4 4 4 3 3 3 2 3 6 2 1 4 3 3 4 2 6 6 9 9 10 13 10 6 4
4 3 7 7 4 3 2 2 3 4 5 3 3 2 2 2 3 2 2 1 5 2 3 2 4 3 1 1 1 1 3 5 4 4 1 2 6 1 5 14 17 12 8 7 5
3 4 7 6 3 3 1 2 2 3 4 5 4 4 2 2 2 2 2 2 5 3 2 1 2 3 6 4 3 3 4 3 4 3 6 5 5 3 4 10 11 13 11 8 6
3 3 5 7 6 5 2 3 2 2 2 3 2 3 3 3 5 3 1 2 2 3 3 3 3 4 6 4 4 4 5 5 5 3 4 6 5 2 5 8 10 12 12 9 8
4 1 2 1 4 4 3 1 2 2 4 4 2 3 3 2 2 2 2 2 3 3 3 3 3 2 5 6 4 5 6 7 9 7 7 5 10 7 11 11 18 17 12 11 8
3 2 2 2 2 2 2 4 4 1 2 1 1 1 2 3 3 5 4 3 3 2 2 3 0 2 4 2 1 6 9 10 12 11 13 10 17 7 9 16 17 18 13 12 10
4 2 2 2 1 3 2 4 6 6 1 1 2 3 1 1 3 4 1 2 3 5 3 2 4 2 4 4 7 8 10 14 5 6 8 11 13 8 6 13 23 18 14 12 9
Wind_Direction
345 342 334 326 321 321 314 296 226 210 214 220 212 214 215 213 196 189 192 193 186 180 181 179 174 163 163 168 157 144 74 170 182 166 170 159 123 129 125 139 135 154 151 148 178
2 1 355 337 345 334 344 352 182 202 203 203 206 208 210 219 174 189 186 180 181 177 181 179 169 160 161 152 155 107 118 200 164 213 165 163 129 137 131 122 97 157 164 157 177
10 8 15 6 336 343 349 325 115 144 159 196 198 182 188 208 129 205 179 177 174 180 179 172 165 159 137 145 147 115 143 157 31 321 171 138 120 125 132 265 205 187 165 164 175
25 15 4 2 351 331 273 200 151 137 141 174 180 165 157 113 176 168 183 173 175 174 169 169 173 163 121 125 119 95 59 63 7 98 134 117 125 102 126 150 190 185 178 171 180
28 24 22 20 38 30 149 155 155 148 131 135 120 146 142 103 252 177 181 172 175 171 169 168 168 143 132 123 101 81 118 67 62 88 91 120 77 116 183 148 166 180 180 185 191
35 32 24 29 42 54 72 137 128 126 125 113 127 128 107 267 273 183 173 168 174 167 166 166 166 151 109 88 82 116 103 87 53 56 60 97 57 129 193 178 156 179 186 194 205
41 42 34 54 49 69 81 91 105 113 102 127 123 131 180 249 130 158 165 164 160 154 161 170 154 169 127 93 117 105 73 40 27 11 43 56 341 236 180 190 180 182 194 203 212
40 49 45 48 69 77 89 83 103 119 126 110 129 116 188 83 106 131 138 143 147 142 158 165 154 131 94 116 64 71 55 98 332 2 7 90 263 13 217 188 183 192 201 213 219
44 45 57 61 52 83 80 72 93 94 90 96 130 183 106 105 124 126 133 142 141 128 146 153 151 91 102 93 51 15 133 104 322 46 317 90 243 29 140 178 186 205 222 228 231
51 59 46 60 41 37 17 4 34 79 112 76 76 97 81 65 114 113 121 138 133 129 126 117 81 72 34 66 180 148 103 88 153 299 26 128 271 329 68 237 245 243 239 240 239
46 39 48 57 56 24 342 339 8 58 56 66 65 61 81 87 107 114 116 130 114 106 78 37 79 122 72 55 163 128 108 115 83 359 8 295 297 298 322 275 261 262 268 254 253
52 52 59 61 55 35 39 57 39 22 9 54 67 68 59 77 103 99 111 90 77 78 47 36 85 289 309 238 98 86 114 82 50 51 49 16 300 295 10 40 10 259 251 245 252
38 69 70 62 41 44 37 31 26 15 43 25 35 39 46 82 53 47 79 81 70 56 52 97 358 11 83 45 96 36 117 156 150 83 66 346 329 331 38 79 76 81 87 73 336
30 59 71 74 50 1 9 1 4 3 67 328 354 24 9 82 50 48 78 84 44 112 81 77 347 73 75 73 53 95 324 109 108 86 190 25 265 283 235 26 54 82 75 61 51
355 6 353 12 345 340 344 341 345 52 63 300 327 356 28 82 122 27 53 81 78 35 85 298 29 40 58 348 330 150 93 82 87 92 79 356 68 264 358 237 223 111 80 75 72
320 318 323 326 328 325 329 338 346 45 337 336 332 354 31 34 40 61 73 81 109 65 43 74 53 58 85 32 63 147 77 48 56 68 29 341 120 268 195 208 184 174 118 106 94
293 302 317 319 321 319 331 343 39 82 278 334 342 16 66 16 34 47 32 31 95 85 11 5 8 350 43 70 27 68 65 13 3 6 220 334 52 243 241 216 188 173 149 124 104
316 326 331 327 331 333 332 50 67 249 264 278 341 36 64 8 32 26 63 42 25 77 97 119 341 7 340 56 145 63 127 148 197 191 261 3 236 249 213 276 178 158 150 135 117
308 335 355 1 11 335 344 54 174 211 270 11 6 66 3 12 97 69 55 68 339 8 120 124 14 319 40 14 67 178 73 138 104 39 41 249 287 301 195 150 162 169 170 159 141
316 322 359 33 9 354 72 129 165 208 265 205 86 40 89 349 59 67 27 317 357 59 116 194 82 359 334 46 36 74 156 65 3 143 256 288 278 236 208 197 194 197 199 174 165
337 347 355 341 3 60 94 170 181 215 199 95 136 95 98 63 67 53 4 358 4 351 56 134 99 278 22 198 179 91 51 56 116 136 174 290 264 214 203 190 187 203 190 169 187
343 24 355 348 32 38 82 29 353 6 18 41 98 83 108 73 67 96 111 51 357 349 62 12 120 142 173 346 197 186 208 158 129 222 145 151 273 352 242 191 189 191 182 179 189
360 339 4 16 90 3 57 86 101 52 30 13 26 15 34 94 89 85 89 356 18 55 107 107 26 44 354 2 360 231 207 157 115 91 199 153 260 8 112 163 188 170 168 176 187
344 21 22 51 73 119 101 16 54 33 89 90 53 23 46 40 18 147 118 5 25 87 88 107 116 167 191 199 137 215 210 194 156 138 192 228 277 254 207 199 194 182 182 189 196
10 34 69 1 359 93 71 112 107 358 25 7 47 114 122 101 48 79 62 8 22 20 41 85 197 179 242 231 208 223 208 189 201 208 196 229 217 217 210 205 198 188 190 191 203
14 8 73 97 92 105 355 198 164 204 145 301 45 353 34 148 181 210 150 197 210 54 84 7 293 47 301 32 230 265 239 220 224 233 248 259 268 210 253 217 204 196 196 197 205
8 8 342 332 73 102 229 181 204 146 185 138 170 112 107 164 101 71 136 122 161 155 150 99 126 80 271 350 328 298 234 216 205 213 207 224 247 177 201 202 199 195 197 203 200
Height
1476 1472 1468 1465 1460 1456 1452 1448 1446 1448 1451 1455 1459 1464 1469 1474 1472 1481 1480 1486 1488 1491 1494 1497 1500 1503 1508 1511 1512 1514 1525 1532 1526 1528 1522 1522 1522 1526 1528 1529 1531 1532 1533 1534 1538
1475 1472 1468 1462 1459 1456 1453 1450 1448 1449 1451 1454 1458 1463 1468 1468 1466 1479 1484 1485 1488 1490 1493 1496 1499 1503 1507 1509 1511 1512 1525 1522 1519 1519 1521 1522 1522 1526 1530 1531 1533 1533 1535 1536 1539
1476 1472 1467 1462 1458 1456 1454 1452 1451 1452 1454 1455 1457 1463 1464 1464 1476 1482 1484 1484 1486 1489 1492 1497 1501 1504 1505 1507 1511 1513 1520 1518 1519 1520 1521 1522 1524 1526 1529 1534 1532 1533 1534 1537 1540
1479 1472 1468 1464 1458 1454 1454 1454 1454 1454 1455 1456 1459 1462 1466 1475 1487 1480 1482 1483 1486 1489 1492 1497 1501 1503 1504 1508 1510 1516 1518 1519 1520 1520 1522 1523 1525 1527 1529 1531 1532 1533 1536 1537 1540
1481 1476 1470 1465 1461 1453 1452 1453 1455 1457 1459 1458 1462 1464 1472 1482 1481 1479 1480 1481 1484 1488 1491 1496 1500 1502 1504 1507 1510 1516 1518 1520 1522 1521 1523 1524 1527 1528 1530 1532 1533 1534 1537 1539 1541
1484 1480 1474 1469 1464 1460 1455 1454 1458 1462 1465 1465 1468 1470 1474 1486 1479 1478 1478 1479 1484 1488 1491 1496 1499 1501 1504 1508 1511 1516 1518 1521 1523 1523 1524 1526 1529 1529 1531 1532 1533 1535 1537 1540 1543
1488 1484 1480 1475 1469 1467 1464 1460 1464 1464 1467 1469 1471 1473 1481 1482 1478 1477 1479 1482 1486 1489 1492 1496 1499 1502 1503 1509 1515 1517 1523 1522 1526 1527 1528 1529 1531 1530 1530 1531 1533 1536 1538 1540 1542
1491 1489 1485 1481 1477 1475 1474 1473 1474 1474 1474 1476 1477 1479 1480 1479 1478 1479 1482 1485 1487 1490 1494 1497 1499 1503 1504 1510 1516 1522 1526 1533 1530 1530 1531 1531 1536 1529 1529 1530 1533 1535 1538 1539 1541
1495 1493 1490 1489 1485 1483 1483 1481 1480 1480 1479 1478 1480 1481 1482 1480 1481 1481 1484 1486 1488 1491 1494 1497 1500 1505 1509 1515 1529 1531 1536 1534 1534 1533 1533 1532 1532 1531 1531 1532 1534 1535 1537 1538 1539
1498 1496 1494 1492 1490 1487 1485 1485 1484 1483 1482 1479 1479 1481 1483 1483 1482 1483 1486 1488 1489 1491 1496 1499 1501 1510 1517 1521 1540 1531 1536 1535 1535 1535 1534 1535 1534 1532 1532 1533 1534 1536 1536 1536 1536
1501 1498 1495 1493 1492 1490 1487 1485 1485 1485 1481 1483 1485 1482 1482 1483 1484 1486 1488 1489 1491 1492 1500 1501 1513 1527 1518 1517 1518 1524 1530 1534 1536 1536 1536 1537 1537 1534 1531 1531 1531 1532 1533 1533 1534
1503 1500 1498 1496 1495 1493 1490 1488 1490 1492 1488 1487 1487 1486 1486 1485 1487 1489 1491 1491 1493 1503 1502 1511 1523 1520 1520 1518 1520 1525 1532 1537 1537 1536 1539 1540 1537 1534 1532 1531 1530 1530 1531 1531 1531
1504 1503 1501 1500 1498 1497 1494 1493 1492 1492 1492 1490 1490 1489 1491 1491 1493 1494 1493 1495 1500 1507 1510 1518 1522 1519 1521 1525 1524 1535 1536 1537 1537 1539 1540 1541 1540 1535 1533 1532 1532 1531 1531 1531 1530
1505 1504 1502 1500 1501 1498 1497 1496 1494 1494 1507 1503 1495 1495 1495 1493 1498 1498 1498 1500 1506 1515 1516 1524 1523 1522 1525 1529 1531 1532 1535 1535 1539 1549 1557 1549 1561 1538 1535 1534 1532 1532 1531 1531 1530
1507 1505 1504 1503 1501 1500 1500 1496 1496 1496 1537 1506 1500 1498 1497 1496 1501 1501 1500 1501 1512 1518 1518 1530 1527 1528 1530 1534 1532 1536 1536 1538 1542 1550 1553 1553 1565 1540 1537 1535 1533 1532 1531 1531 1531
1507 1506 1504 1504 1501 1500 1498 1496 1496 1512 1536 1510 1503 1501 1499 1499 1502 1504 1504 1505 1513 1518 1521 1529 1528 1531 1532 1533 1532 1534 1538 1545 1552 1558 1577 1562 1568 1543 1539 1532 1532 1532 1532 1531 1531
1507 1505 1504 1502 1501 1498 1496 1496 1511 1532 1520 1514 1509 1505 1505 1508 1507 1508 1511 1515 1522 1536 1544 1533 1535 1534 1534 1535 1535 1537 1545 1581 1572 1588 1570 1568 1575 1542 1530 1528 1528 1530 1531 1531 1530
1507 1505 1503 1501 1500 1498 1497 1499 1526 1524 1517 1511 1509 1509 1512 1511 1511 1512 1514 1524 1521 1524 1547 1552 1558 1539 1538 1539 1538 1542 1545 1572 1562 1577 1572 1572 1562 1529 1527 1527 1526 1528 1530 1530 1530
1508 1506 1503 1502 1500 1499 1499 1520 1527 1522 1515 1512 1510 1514 1516 1512 1513 1516 1522 1525 1524 1522 1527 1545 1546 1541 1540 1539 1540 1542 1553 1551 1572 1595 1589 1569 1544 1528 1526 1526 1527 1528 1529 1529 1529
1507 1506 1504 1502 1501 1500 1503 1515 1515 1514 1513 1512 1514 1514 1518 1517 1516 1519 1523 1525 1523 1522 1522 1530 1547 1542 1541 1540 1541 1541 1547 1557 1569 1566 1559 1565 1549 1537 1527 1526 1526 1527 1527 1528 1529
1507 1505 1504 1503 1501 1501 1519 1518 1513 1512 1512 1512 1514 1516 1518 1518 1519 1523 1528 1526 1524 1522 1521 1526 1533 1547 1543 1544 1544 1548 1549 1553 1557 1561 1564 1555 1543 1521 1519 1519 1522 1523 1525 1527 1527
1507 1507 1504 1503 1504 1508 1516 1514 1514 1514 1512 1512 1513 1513 1515 1517 1521 1523 1524 1526 1525 1524 1526 1529 1537 1556 1540 1541 1541 1541 1542 1547 1556 1552 1566 1566 1543 1515 1515 1516 1519 1522 1524 1525 1525
1508 1507 1505 1502 1516 1519 1513 1514 1514 1515 1516 1516 1515 1515 1514 1517 1521 1523 1525 1526 1524 1525 1527 1528 1537 1559 1546 1545 1543 1543 1542 1543 1550 1555 1560 1557 1531 1516 1514 1517 1519 1520 1522 1523 1524
1510 1512 1508 1506 1509 1513 1516 1517 1517 1516 1516 1516 1517 1517 1518 1520 1521 1525 1526 1526 1526 1526 1527 1528 1538 1538 1545 1535 1540 1542 1540 1541 1541 1562 1544 1542 1524 1517 1518 1517 1517 1519 1519 1521 1522
1512 1514 1513 1517 1514 1513 1515 1517 1518 1518 1518 1518 1517 1518 1519 1523 1524 1526 1529 1529 1529 1529 1530 1531 1536 1541 1538 1536 1535 1533 1532 1538 1540 1534 1533 1520 1525 1513 1512 1511 1512 1514 1517 1519 1519
1515 1515 1514 1514 1514 1515 1517 1518 1519 1519 1519 1520 1521 1520 1520 1522 1523 1525 1527 1529 1528 1531 1532 1534 1539 1540 1544 1534 1536 1535 1531 1531 1529 1523 1523 1519 1512 1506 1506 1508 1510 1511 1514 1515 1516
1517 1517 1517 1517 1516 1517 1518 1516 1516 1517 1520 1520 1520 1522 1523 1524 1524 1524 1525 1525 1527 1530 1534 1536 1541 1548 1541 1541 1537 1531 1515 1513 1514 1515 1511 1517 1497 1500 1503 1503 1504 1508 1510 1512 1514